﻿_id,日時,平均風速(m/s),平均風向,最大瞬間風速(m/s),最大風速時風向,気温(℃),湿度(%),10分間移動積算雨量(mm),1時間移動積算雨量(mm),日雨量(mm),累計雨量(mm),日射(日積算)(MJ/m2),日照(日積算)(min),現地気圧(hPa),海面気圧(hPa)
1,2021-10-18T00:00:00,1.7,北東,3,北北東,11.2,81.2,0,0,7,11.5,10.78,224,1009,1023.1
2,2021-10-18T00:01:00,1.8,北東,3,北北東,11.1,80.8,0,0,0,11.5,0,0,1009,1023.1
3,2021-10-18T00:02:00,1.8,北東,3,北北東,11.1,80.9,0,0,0,11.5,0,0,1009,1023.1
4,2021-10-18T00:03:00,1.8,北東,3,北東,10.9,81.1,0,0,0,11.5,0,0,1009,1023.1
5,2021-10-18T00:04:00,1.9,北東,3,北東,10.9,81.2,0,0,0,11.5,0,0,1009,1023.1
6,2021-10-18T00:05:00,2,北東,3,北東,11,81.9,0,0,0,11.5,0,0,1009,1023.1
7,2021-10-18T00:06:00,2.1,北東,3,北東,11.2,82.4,0,0,0,11.5,0,0,1009,1023.1
8,2021-10-18T00:07:00,2.1,北東,3,北東,11.1,81.8,0,0,0,11.5,0,0,1009,1023.1
9,2021-10-18T00:08:00,2.2,北東,3,北東,11.1,81.4,0,0,0,11.5,0,0,1008.9,1023
10,2021-10-18T00:09:00,2.3,北東,3,北東,11,81.2,0,0,0,11.5,0,0,1009,1023.1
11,2021-10-18T00:10:00,2.3,北東,3.3,北東,11,81.5,0,0,0,11.5,0,0,1009,1023.1
12,2021-10-18T00:11:00,2.4,北東,3.4,北東,11,81.9,0,0,0,11.5,0,0,1009,1023.1
13,2021-10-18T00:12:00,2.4,北東,3.5,北東,10.9,81.6,0,0,0,11.5,0,0,1009,1023.1
14,2021-10-18T00:13:00,2.5,北東,3.5,北東,11.2,82.4,0,0,0,11.5,0,0,1008.9,1023
15,2021-10-18T00:14:00,2.5,北東,3.9,北東,11.1,82.5,0,0,0,11.5,0,0,1008.9,1023
16,2021-10-18T00:15:00,2.6,北東,3.9,北東,11.1,81.5,0,0,0,11.5,0,0,1009,1023.1
17,2021-10-18T00:16:00,2.6,北東,4.1,北東,11.2,82,0,0,0,11.5,0,0,1009,1023.1
18,2021-10-18T00:17:00,2.6,北東,4.1,北東,11.1,81.8,0,0,0,11.5,0,0,1009,1023.1
19,2021-10-18T00:18:00,2.7,北東,4.1,北東,11.2,81.7,0,0,0,11.5,0,0,1009,1023.1
20,2021-10-18T00:19:00,2.7,北東,4.1,北東,11,81.4,0,0,0,11.5,0,0,1009,1023.1
21,2021-10-18T00:20:00,2.7,北東,4.1,北東,11.1,81.5,0,0,0,11.5,0,0,1009,1023.1
22,2021-10-18T00:21:00,2.7,北東,4.1,北東,11.1,81.9,0,0,0,11.5,0,0,1009,1023.1
23,2021-10-18T00:22:00,2.8,北東,4.1,北東,11.2,82.2,0,0,0,11.5,0,0,1009,1023.1
24,2021-10-18T00:23:00,2.7,北東,4.1,北東,11.1,82.3,0,0,0,11.5,0,0,1009,1023.1
25,2021-10-18T00:24:00,2.7,北東,4.1,北東,11,81.6,0,0,0,11.5,0,0,1009,1023.1
26,2021-10-18T00:25:00,2.6,北東,4.1,北東,11,81.7,0,0,0,11.5,0,0,1009,1023.1
27,2021-10-18T00:26:00,2.5,北東,4.1,北東,11,81.9,0,0,0,11.5,0,0,1009,1023.1
28,2021-10-18T00:27:00,2.4,北東,4.1,北東,10.8,81.6,0,0,0,11.5,0,0,1009.1,1023.3
29,2021-10-18T00:28:00,2.4,北東,4.1,北東,10.8,82,0,0,0,11.5,0,0,1009.1,1023.3
30,2021-10-18T00:29:00,2.3,北東,4.1,北東,11,82.9,0,0,0,11.5,0,0,1009.1,1023.2
31,2021-10-18T00:30:00,2.3,北東,4.1,北東,11,83.1,0,0,0,11.5,0,0,1009.1,1023.2
32,2021-10-18T00:31:00,2.3,北東,3.8,北東,10.9,82.7,0,0,0,11.5,0,0,1009.1,1023.2
33,2021-10-18T00:32:00,2.3,北東,3.8,北東,10.9,82.3,0,0,0,11.5,0,0,1009.1,1023.2
34,2021-10-18T00:33:00,2.2,北東,3.8,北東,10.9,82.3,0,0,0,11.5,0,0,1009.1,1023.2
35,2021-10-18T00:34:00,2.2,北東,3.8,北東,10.9,82.6,0,0,0,11.5,0,0,1009.1,1023.2
36,2021-10-18T00:35:00,2.1,北東,3.7,北東,10.9,82.4,0,0,0,11.5,0,0,1009.1,1023.2
37,2021-10-18T00:36:00,2.2,北東,3.7,北東,10.9,82.5,0,0,0,11.5,0,0,1009.1,1023.2
38,2021-10-18T00:37:00,2.3,北東,3.7,北東,10.7,82,0,0,0,11.5,0,0,1009.1,1023.3
39,2021-10-18T00:38:00,2.3,北東,3.7,北東,10.8,82.1,0,0,0,11.5,0,0,1009.1,1023.3
40,2021-10-18T00:39:00,2.3,北東,3.7,北東,10.8,82.8,0,0,0,11.5,0,0,1009.1,1023.3
41,2021-10-18T00:40:00,2.4,北東,3.7,北東,10.8,82.4,0,0,0,11.5,0,0,1009.1,1023.3
42,2021-10-18T00:41:00,2.4,北東,3.8,北東,10.8,82.4,0,0,0,11.5,0,0,1009.1,1023.3
43,2021-10-18T00:42:00,2.4,北東,3.8,北東,11,82.9,0,0,0,11.5,0,0,1009.1,1023.2
44,2021-10-18T00:43:00,2.4,北東,3.8,北東,10.9,82.6,0,0,0,11.5,0,0,1009.1,1023.2
45,2021-10-18T00:44:00,2.4,北東,3.8,北東,11,82.6,0,0,0,11.5,0,0,1009.1,1023.2
46,2021-10-18T00:45:00,2.5,北東,3.8,北東,10.9,82.4,0,0,0,11.5,0,0,1009.1,1023.2
47,2021-10-18T00:46:00,2.5,北東,3.8,北東,11,81.9,0,0,0,11.5,0,0,1009.1,1023.2
48,2021-10-18T00:47:00,2.4,北東,3.8,北東,11.3,82.4,0,0,0,11.5,0,0,1009,1023.1
49,2021-10-18T00:48:00,2.4,北東,3.8,北東,11.3,82.1,0,0,0,11.5,0,0,1009.1,1023.2
50,2021-10-18T00:49:00,2.5,北東,3.8,北東,11.4,81.6,0,0,0,11.5,0,0,1009.1,1023.2
51,2021-10-18T00:50:00,2.5,北東,3.8,北東,11.1,80.5,0,0,0,11.5,0,0,1009.1,1023.2
52,2021-10-18T00:51:00,2.5,北東,3.6,北東,11.1,79.9,0,0,0,11.5,0,0,1009.1,1023.2
53,2021-10-18T00:52:00,2.5,北東,3.6,北東,11,80.4,0,0,0,11.5,0,0,1009,1023.1
54,2021-10-18T00:53:00,2.6,北東,3.6,北東,11,80.4,0,0,0,11.5,0,0,1009,1023.1
55,2021-10-18T00:54:00,2.6,北北東,4.1,北北東,11,80.8,0,0,0,11.5,0,0,1009,1023.1
56,2021-10-18T00:55:00,2.7,北北東,4.1,北北東,11.3,81.4,0,0,0,11.5,0,0,1009.1,1023.2
57,2021-10-18T00:56:00,2.7,北北東,4.1,北北東,11.2,81.1,0,0,0,11.5,0,0,1009.1,1023.2
58,2021-10-18T00:57:00,2.7,北北東,4.1,北北東,11.1,80.7,0,0,0,11.5,0,0,1009.1,1023.2
59,2021-10-18T00:58:00,2.6,北北東,4.1,北北東,11.2,80.9,0,0,0,11.5,0,0,1009.1,1023.2
60,2021-10-18T00:59:00,2.5,北北東,4.1,北北東,11,80.6,0,0,0,11.5,0,0,1009.1,1023.2
61,2021-10-18T01:00:00,2.4,北東,4.1,北北東,10.7,80,0,0,0,11.5,0,0,1009.1,1023.3
62,2021-10-18T01:01:00,2.3,北東,4.1,北北東,10.9,81.4,0,0,0,11.5,0,0,1009.1,1023.2
63,2021-10-18T01:02:00,2.3,北東,4.1,北北東,10.7,81.5,0,0,0,11.5,0,0,1009.1,1023.3
64,2021-10-18T01:03:00,2.2,北東,4.1,北北東,10.8,82,0,0,0,11.5,0,0,1009.1,1023.3
65,2021-10-18T01:04:00,2.2,北東,3.8,北北東,10.8,82.3,0,0,0,11.5,0,0,1009.1,1023.3
66,2021-10-18T01:05:00,2.1,北東,3.5,北東,10.8,82.4,0,0,0,11.5,0,0,1009.1,1023.3
67,2021-10-18T01:06:00,2.1,北東,3.5,北東,10.7,82.3,0,0,0,11.5,0,0,1009.1,1023.3
68,2021-10-18T01:07:00,2,北東,3.5,北東,10.7,82.5,0,0,0,11.5,0,0,1009.1,1023.3
69,2021-10-18T01:08:00,1.9,北東,3.5,北東,10.6,82.5,0,0,0,11.5,0,0,1009.1,1023.3
70,2021-10-18T01:09:00,1.9,北東,3.5,北東,10.6,83,0,0,0,11.5,0,0,1009.1,1023.3
71,2021-10-18T01:10:00,1.9,北東,3.5,北東,10.4,82.5,0,0,0,11.5,0,0,1009.1,1023.3
72,2021-10-18T01:11:00,1.9,北東,3.5,北東,10.5,83.4,0,0,0,11.5,0,0,1009.1,1023.3
73,2021-10-18T01:12:00,1.9,北東,3.5,北東,10.6,83.6,0,0,0,11.5,0,0,1009,1023.2
74,2021-10-18T01:13:00,1.8,北東,3.5,北東,10.5,83.9,0,0,0,11.5,0,0,1009.1,1023.3
75,2021-10-18T01:14:00,1.9,北東,3.5,北東,10.5,83.3,0,0,0,11.5,0,0,1009.1,1023.3
76,2021-10-18T01:15:00,1.9,北東,3.8,北東,10.6,83.6,0,0,0,11.5,0,0,1009.1,1023.3
77,2021-10-18T01:16:00,2,北東,3.8,北東,10.6,83.8,0,0,0,11.5,0,0,1009.1,1023.3
78,2021-10-18T01:17:00,2.2,北東,3.8,北東,10.8,84.1,0,0,0,11.5,0,0,1009.1,1023.3
79,2021-10-18T01:18:00,2.4,北東,3.8,北東,10.7,83.4,0,0,0,11.5,0,0,1009.1,1023.3
80,2021-10-18T01:19:00,2.5,北東,4.3,北東,10.7,82.8,0,0,0,11.5,0,0,1009.2,1023.4
81,2021-10-18T01:20:00,2.6,北東,4.3,北東,11,83.9,0,0,0,11.5,0,0,1009.2,1023.3
82,2021-10-18T01:21:00,2.7,北東,4.3,北東,11,82.8,0,0,0,11.5,0,0,1009.1,1023.2
83,2021-10-18T01:22:00,2.7,北東,4.3,北東,11,82.7,0,0,0,11.5,0,0,1009.2,1023.3
84,2021-10-18T01:23:00,2.8,北東,4.3,北東,10.9,81.8,0,0,0,11.5,0,0,1009.2,1023.3
85,2021-10-18T01:24:00,2.7,北東,4.3,北東,11.1,81.9,0,0,0,11.5,0,0,1009.1,1023.2
86,2021-10-18T01:25:00,2.7,北北東,4.3,北東,10.9,81.2,0,0,0,11.5,0,0,1009.1,1023.2
87,2021-10-18T01:26:00,2.6,北北東,4.3,北東,10.8,80.9,0,0,0,11.5,0,0,1009.1,1023.3
88,2021-10-18T01:27:00,2.5,北北東,4.3,北東,10.8,81.5,0,0,0,11.5,0,0,1009.1,1023.3
89,2021-10-18T01:28:00,2.4,北北東,4.3,北東,10.9,82.3,0,0,0,11.5,0,0,1009.1,1023.2
90,2021-10-18T01:29:00,2.3,北北東,4.1,北北東,10.9,82,0,0,0,11.5,0,0,1009.2,1023.3
91,2021-10-18T01:30:00,2.3,北北東,3.7,北北東,10.7,81.9,0,0,0,11.5,0,0,1009.2,1023.4
92,2021-10-18T01:31:00,2.3,北北東,3.7,北北東,10.7,81.9,0,0,0,11.5,0,0,1009.2,1023.4
93,2021-10-18T01:32:00,2.3,北東,3.6,北東,10.5,82.2,0,0,0,11.5,0,0,1009.2,1023.4
94,2021-10-18T01:33:00,2.3,北東,3.6,北東,10.6,82.9,0,0,0,11.5,0,0,1009.2,1023.4
95,2021-10-18T01:34:00,2.3,北東,3.6,北東,10.4,83.1,0,0,0,11.5,0,0,1009.1,1023.3
96,2021-10-18T01:35:00,2.3,北東,3.6,北東,10.6,83.7,0,0,0,11.5,0,0,1009.2,1023.4
97,2021-10-18T01:36:00,2.3,北東,3.6,北東,10.7,84.5,0,0,0,11.5,0,0,1009.2,1023.4
98,2021-10-18T01:37:00,2.4,北東,3.6,北東,10.5,83.4,0,0,0,11.5,0,0,1009.1,1023.3
99,2021-10-18T01:38:00,2.3,北東,3.6,北東,10.5,83.7,0,0,0,11.5,0,0,1009.1,1023.3
100,2021-10-18T01:39:00,2.3,北東,3.6,北東,10.4,83.9,0,0,0,11.5,0,0,1009.1,1023.3
101,2021-10-18T01:40:00,2.2,北東,3.6,北東,10.5,84.2,0,0,0,11.5,0,0,1009.1,1023.3
102,2021-10-18T01:41:00,2.1,北東,3.6,北東,10.5,84.7,0,0,0,11.5,0,0,1009.1,1023.3
103,2021-10-18T01:42:00,2,北東,3,北北東,10.7,84.9,0,0,0,11.5,0,0,1009.1,1023.3
104,2021-10-18T01:43:00,1.9,北東,3,北北東,10.6,84.5,0,0,0,11.5,0,0,1009.1,1023.3
105,2021-10-18T01:44:00,1.8,北東,2.9,北東,10.5,84.1,0,0,0,11.5,0,0,1009.1,1023.3
106,2021-10-18T01:45:00,1.8,北東,2.9,北東,10.6,84.4,0,0,0,11.5,0,0,1009,1023.2
107,2021-10-18T01:46:00,1.7,北東,2.8,北北東,10.5,84.3,0,0,0,11.5,0,0,1009,1023.2
108,2021-10-18T01:47:00,1.8,北東,3.3,北東,10.8,85,0,0,0,11.5,0,0,1009,1023.2
109,2021-10-18T01:48:00,1.9,北東,3.7,北東,10.6,84.8,0,0,0,11.5,0,0,1009,1023.2
110,2021-10-18T01:49:00,2,北東,3.9,北東,10.7,84.3,0,0,0,11.5,0,0,1009,1023.2
111,2021-10-18T01:50:00,2.1,北東,3.9,北東,10.8,84.6,0,0,0,11.5,0,0,1009,1023.2
112,2021-10-18T01:51:00,2.2,北東,3.9,北東,10.9,84.1,0,0,0,11.5,0,0,1009,1023.1
113,2021-10-18T01:52:00,2.2,北東,3.9,北東,10.8,83.6,0,0,0,11.5,0,0,1009,1023.2
114,2021-10-18T01:53:00,2.2,北東,3.9,北東,10.8,83.1,0,0,0,11.5,0,0,1009,1023.2
115,2021-10-18T01:54:00,2.2,北東,3.9,北東,10.9,83.2,0,0,0,11.5,0,0,1009,1023.1
116,2021-10-18T01:55:00,2.2,北東,3.9,北東,10.7,82.8,0,0,0,11.5,0,0,1009.1,1023.3
117,2021-10-18T01:56:00,2.1,北東,3.9,北東,10.7,82.8,0,0,0,11.5,0,0,1009,1023.2
118,2021-10-18T01:57:00,1.9,北東,3.9,北東,10.6,82.9,0,0,0,11.5,0,0,1009.1,1023.3
119,2021-10-18T01:58:00,1.7,北東,3.9,北東,10.4,82.9,0,0,0,11.5,0,0,1009,1023.2
120,2021-10-18T01:59:00,1.5,北北東,3.2,北東,10.3,83,0,0,0,11.5,0,0,1009,1023.2
121,2021-10-18T02:00:00,1.4,北北東,3.2,北東,10.6,84.3,0,0,0,11.5,0,0,1009,1023.2
122,2021-10-18T02:01:00,1.4,北北東,2.7,北東,10.6,85,0,0,0,11.5,0,0,1009.1,1023.3
123,2021-10-18T02:02:00,1.4,北北東,3.2,北東,10.5,84.7,0,0,0,11.5,0,0,1009.1,1023.3
124,2021-10-18T02:03:00,1.4,北北東,3.2,北東,10.5,84.7,0,0,0,11.5,0,0,1009.1,1023.3
125,2021-10-18T02:04:00,1.5,北東,3.2,北東,10.4,84.3,0,0,0,11.5,0,0,1009.1,1023.3
126,2021-10-18T02:05:00,1.5,北東,3.2,北東,10.4,84.4,0,0,0,11.5,0,0,1009.1,1023.3
127,2021-10-18T02:06:00,1.5,北東,3.2,北東,10.5,85,0,0,0,11.5,0,0,1009.1,1023.3
128,2021-10-18T02:07:00,1.6,北東,3.2,北東,10.3,84.7,0,0,0,11.5,0,0,1009.1,1023.3
129,2021-10-18T02:08:00,1.5,北東,3.2,北東,10.2,84.3,0,0,0,11.5,0,0,1009.1,1023.3
130,2021-10-18T02:09:00,1.5,北東,3.2,北東,10.3,85,0,0,0,11.5,0,0,1009.1,1023.3
131,2021-10-18T02:10:00,1.4,北東,3.2,北東,10.1,85.6,0,0,0,11.5,0,0,1009.1,1023.3
132,2021-10-18T02:11:00,1.3,北東,3.2,北東,10.2,85.7,0,0,0,11.5,0,0,1009.1,1023.3
133,2021-10-18T02:12:00,1.2,北東,2.8,北東,10.2,86.3,0,0,0,11.5,0,0,1009.1,1023.3
134,2021-10-18T02:13:00,1.1,北東,2.7,北北東,10.2,86.3,0,0,0,11.5,0,0,1009.1,1023.3
135,2021-10-18T02:14:00,1.1,北東,2.4,北北東,10.2,86.5,0,0,0,11.5,0,0,1009.1,1023.3
136,2021-10-18T02:15:00,1.1,北東,2.4,北北東,10.3,86.5,0,0,0,11.5,0,0,1009.1,1023.3
137,2021-10-18T02:16:00,1,北東,2.2,北東,10.2,86.3,0,0,0,11.5,0,0,1009.1,1023.3
138,2021-10-18T02:17:00,1,北北東,2.2,北東,10.3,86.3,0,0,0,11.5,0,0,1009.1,1023.3
139,2021-10-18T02:18:00,0.9,北北東,2.2,北東,10.3,86.4,0,0,0,11.5,0,0,1009.1,1023.3
140,2021-10-18T02:19:00,0.9,北北東,2.2,北東,10.2,85.9,0,0,0,11.5,0,0,1009,1023.2
141,2021-10-18T02:20:00,0.9,北北東,2.2,北東,10.3,86.1,0,0,0,11.5,0,0,1009,1023.2
142,2021-10-18T02:21:00,0.8,北北東,2.2,北東,10.3,86.2,0,0,0,11.5,0,0,1009,1023.2
143,2021-10-18T02:22:00,0.7,北北東,2.1,北北東,10.3,86.1,0,0,0,11.5,0,0,1009,1023.2
144,2021-10-18T02:23:00,0.6,北北東,1.9,北北東,10.3,86,0,0,0,11.5,0,0,1009,1023.2
145,2021-10-18T02:24:00,0.5,北,1.6,北北東,10.3,85.8,0,0,0,11.5,0,0,1009.1,1023.3
146,2021-10-18T02:25:00,0.4,北,1.3,西北西,10.4,86.1,0,0,0,11.5,0,0,1009.1,1023.3
147,2021-10-18T02:26:00,0.4,北,1.5,北西,10.5,86.4,0,0,0,11.5,0,0,1009.1,1023.3
148,2021-10-18T02:27:00,0.5,北,1.9,北北東,10.5,86.4,0,0,0,11.5,0,0,1009.1,1023.3
149,2021-10-18T02:28:00,0.6,北,1.9,北北東,10.4,85.7,0,0,0,11.5,0,0,1009.1,1023.3
150,2021-10-18T02:29:00,0.6,北,1.9,北北東,10.3,85.6,0,0,0,11.5,0,0,1009.1,1023.3
151,2021-10-18T02:30:00,0.6,北,1.9,北北東,10.5,85.8,0,0,0,11.5,0,0,1009,1023.2
152,2021-10-18T02:31:00,0.6,北北東,1.9,北北東,10.4,85.7,0,0,0,11.5,0,0,1009.1,1023.3
153,2021-10-18T02:32:00,0.6,北,1.9,北北東,10.6,86.2,0,0,0,11.5,0,0,1009,1023.2
154,2021-10-18T02:33:00,0.6,北,1.9,北北東,10.4,86.2,0,0,0,11.5,0,0,1009,1023.2
155,2021-10-18T02:34:00,0.7,北北東,1.9,北北東,10.3,85.4,0,0,0,11.5,0,0,1009,1023.2
156,2021-10-18T02:35:00,0.8,北北東,2,北北東,10.4,85.6,0,0,0,11.5,0,0,1008.9,1023.1
157,2021-10-18T02:36:00,0.8,北東,2.3,北東,10.3,85.6,0,0,0,11.5,0,0,1008.9,1023.1
158,2021-10-18T02:37:00,0.9,北東,2.6,北東,10.4,86.3,0,0,0,11.5,0,0,1008.9,1023.1
159,2021-10-18T02:38:00,1.1,北東,3.1,北東,10.5,86.6,0,0,0,11.5,0,0,1009,1023.2
160,2021-10-18T02:39:00,1.1,北東,3.1,北東,10.6,86.7,0,0,0,11.5,0,0,1009,1023.2
161,2021-10-18T02:40:00,1.3,北東,3.1,北東,10.8,86.7,0,0,0,11.5,0,0,1009,1023.2
162,2021-10-18T02:41:00,1.4,北東,3.1,北東,10.8,86.1,0,0,0,11.5,0,0,1009,1023.2
163,2021-10-18T02:42:00,1.6,北東,3.4,北東,11.1,86.2,0,0,0,11.5,0,0,1009,1023.1
164,2021-10-18T02:43:00,1.8,北東,3.4,北東,11.2,85.6,0,0,0,11.5,0,0,1009,1023.1
165,2021-10-18T02:44:00,1.9,北東,3.4,北東,10.9,84.4,0,0,0,11.5,0,0,1009,1023.1
166,2021-10-18T02:45:00,2.1,北東,3.7,北東,10.9,83.8,0,0,0,11.5,0,0,1008.9,1023
167,2021-10-18T02:46:00,2.2,北東,3.7,北東,11,84.1,0,0,0,11.5,0,0,1008.9,1023
168,2021-10-18T02:47:00,2.2,北北東,3.7,北東,11,84.1,0,0,0,11.5,0,0,1008.9,1023
169,2021-10-18T02:48:00,2.2,北北東,3.7,北東,10.9,83.3,0,0,0,11.5,0,0,1008.9,1023
170,2021-10-18T02:49:00,2.3,北北東,3.7,北東,11,83.7,0,0,0,11.5,0,0,1008.9,1023
171,2021-10-18T02:50:00,2.3,北北東,3.7,北東,11,84,0,0,0,11.5,0,0,1008.9,1023
172,2021-10-18T02:51:00,2.4,北東,3.7,北東,10.9,83.7,0,0,0,11.5,0,0,1008.9,1023
173,2021-10-18T02:52:00,2.4,北東,3.7,北東,11.1,83.7,0,0,0,11.5,0,0,1008.9,1023
174,2021-10-18T02:53:00,2.4,北東,3.7,北東,10.9,83.8,0,0,0,11.5,0,0,1008.9,1023
175,2021-10-18T02:54:00,2.4,北東,3.7,北東,10.9,83.8,0,0,0,11.5,0,0,1008.9,1023
176,2021-10-18T02:55:00,2.3,北東,3.6,北東,10.8,83.1,0,0,0,11.5,0,0,1008.9,1023
177,2021-10-18T02:56:00,2.3,北東,3.6,北東,10.9,83.6,0,0,0,11.5,0,0,1008.9,1023
178,2021-10-18T02:57:00,2.3,北東,3.6,北東,10.8,83.7,0,0,0,11.5,0,0,1009,1023.2
179,2021-10-18T02:58:00,2.4,北東,3.6,北東,11.1,84.3,0,0,0,11.5,0,0,1009,1023.1
180,2021-10-18T02:59:00,2.3,北東,3.6,北東,10.9,83.7,0,0,0,11.5,0,0,1009,1023.1
181,2021-10-18T03:00:00,2.2,北東,3.6,北東,10.9,83.2,0,0,0,11.5,0,0,1009,1023.1
182,2021-10-18T03:01:00,2.1,北東,3.3,北東,11.1,83.6,0,0,0,11.5,0,0,1008.9,1023
183,2021-10-18T03:02:00,2.1,北東,3.3,北東,11,83.6,0,0,0,11.5,0,0,1009,1023.1
184,2021-10-18T03:03:00,2,北東,3.3,北東,10.8,82.8,0,0,0,11.5,0,0,1008.9,1023
185,2021-10-18T03:04:00,1.9,北東,3.3,北東,10.8,82.9,0,0,0,11.5,0,0,1008.9,1023
186,2021-10-18T03:05:00,1.9,北東,3.3,北東,10.8,83.6,0,0,0,11.5,0,0,1008.9,1023
187,2021-10-18T03:06:00,1.8,北東,3.3,北東,10.8,83.9,0,0,0,11.5,0,0,1008.9,1023
188,2021-10-18T03:07:00,1.8,北東,3.3,北東,10.8,84.3,0,0,0,11.5,0,0,1008.9,1023
189,2021-10-18T03:08:00,1.8,北東,3.1,北北東,11.1,85.1,0,0,0,11.5,0,0,1008.9,1023
190,2021-10-18T03:09:00,1.8,北東,3.1,北北東,10.9,84.2,0,0,0,11.5,0,0,1008.8,1022.9
191,2021-10-18T03:10:00,1.8,北東,3.1,北北東,10.9,83.8,0,0,0,11.5,0,0,1008.8,1022.9
192,2021-10-18T03:11:00,1.9,北東,3.1,北北東,11.1,84.3,0,0,0,11.5,0,0,1008.9,1023
193,2021-10-18T03:12:00,2,北東,3.1,北北東,10.8,83.5,0,0,0,11.5,0,0,1008.8,1022.9
194,2021-10-18T03:13:00,2,北東,3.1,北北東,11,83.8,0,0,0,11.5,0,0,1008.8,1022.9
195,2021-10-18T03:14:00,2.1,北東,3.1,北北東,11,84,0,0,0,11.5,0,0,1008.8,1022.9
196,2021-10-18T03:15:00,2.1,北東,3.1,北北東,10.9,83.5,0,0,0,11.5,0,0,1008.8,1022.9
197,2021-10-18T03:16:00,2.1,北東,3.1,北北東,10.8,83.2,0,0,0,11.5,0,0,1008.8,1022.9
198,2021-10-18T03:17:00,2.1,北東,3.4,北北東,10.9,83.5,0,0,0,11.5,0,0,1008.8,1022.9
199,2021-10-18T03:18:00,2.1,北東,3.4,北北東,10.8,83.3,0,0,0,11.5,0,0,1008.8,1022.9
200,2021-10-18T03:19:00,2.2,北東,3.4,北北東,10.8,83.2,0,0,0,11.5,0,0,1008.8,1022.9
201,2021-10-18T03:20:00,2.1,北東,3.4,北北東,10.7,82.9,0,0,0,11.5,0,0,1008.7,1022.9
202,2021-10-18T03:21:00,2.1,北東,3.4,北北東,10.8,83.4,0,0,0,11.5,0,0,1008.8,1022.9
203,2021-10-18T03:22:00,2.1,北東,3.4,北北東,10.9,83.9,0,0,0,11.5,0,0,1008.7,1022.8
204,2021-10-18T03:23:00,2.1,北東,3.4,北北東,10.8,83.3,0,0,0,11.5,0,0,1008.7,1022.8
205,2021-10-18T03:24:00,2.1,北東,3.4,北北東,10.8,83,0,0,0,11.5,0,0,1008.7,1022.8
206,2021-10-18T03:25:00,2.2,北東,3.4,北北東,11.1,83.1,0,0,0,11.5,0,0,1008.7,1022.8
207,2021-10-18T03:26:00,2.3,北東,3.4,北北東,11.1,83.3,0,0,0,11.5,0,0,1008.8,1022.9
208,2021-10-18T03:27:00,2.2,北東,3.1,北北東,10.9,82.2,0,0,0,11.5,0,0,1008.8,1022.9
209,2021-10-18T03:28:00,2.2,北東,3.1,北北東,10.8,81.7,0,0,0,11.5,0,0,1008.8,1022.9
210,2021-10-18T03:29:00,2.2,北東,3.1,北北東,10.7,81.7,0,0,0,11.5,0,0,1008.8,1023
211,2021-10-18T03:30:00,2.2,北東,3.1,北北東,10.8,82,0,0,0,11.5,0,0,1008.8,1022.9
212,2021-10-18T03:31:00,2.1,北東,3.1,北北東,10.8,82.6,0,0,0,11.5,0,0,1008.8,1022.9
213,2021-10-18T03:32:00,2,北東,3.1,北北東,10.9,82.2,0,0,0,11.5,0,0,1008.8,1022.9
214,2021-10-18T03:33:00,1.9,北北東,3.1,北北東,10.8,82.6,0,0,0,11.5,0,0,1008.8,1022.9
215,2021-10-18T03:34:00,1.9,北北東,3.1,北北東,10.7,82.4,0,0,0,11.5,0,0,1008.8,1023
216,2021-10-18T03:35:00,1.8,北北東,3.1,北北東,10.7,82.4,0,0,0,11.5,0,0,1008.8,1023
217,2021-10-18T03:36:00,1.9,北北東,3.1,北東,10.6,82.5,0,0,0,11.5,0,0,1008.8,1023
218,2021-10-18T03:37:00,1.9,北北東,3.1,北東,10.6,82.6,0,0,0,11.5,0,0,1008.8,1023
219,2021-10-18T03:38:00,1.9,北北東,3.1,北東,10.5,82.5,0,0,0,11.5,0,0,1008.8,1023
220,2021-10-18T03:39:00,2,北北東,3.3,北北東,10.6,82.8,0,0,0,11.5,0,0,1008.8,1023
221,2021-10-18T03:40:00,2,北北東,3.3,北北東,10.6,83.3,0,0,0,11.5,0,0,1008.8,1023
222,2021-10-18T03:41:00,2.1,北北東,3.4,北北東,10.8,83.9,0,0,0,11.5,0,0,1008.8,1022.9
223,2021-10-18T03:42:00,2.2,北北東,3.4,北北東,10.7,83.1,0,0,0,11.5,0,0,1008.8,1023
224,2021-10-18T03:43:00,2.3,北北東,3.4,北北東,10.9,83.1,0,0,0,11.5,0,0,1008.8,1022.9
225,2021-10-18T03:44:00,2.3,北北東,3.4,北北東,10.8,82.2,0,0,0,11.5,0,0,1008.8,1022.9
226,2021-10-18T03:45:00,2.4,北北東,3.4,北北東,10.7,81.8,0,0,0,11.5,0,0,1008.9,1023.1
227,2021-10-18T03:46:00,2.3,北北東,3.4,北北東,10.8,82,0,0,0,11.5,0,0,1008.8,1022.9
228,2021-10-18T03:47:00,2.3,北北東,3.4,北北東,10.7,81.9,0,0,0,11.5,0,0,1008.8,1023
229,2021-10-18T03:48:00,2.3,北北東,3.4,北北東,10.5,81.6,0,0,0,11.5,0,0,1008.8,1023
230,2021-10-18T03:49:00,2.2,北北東,3.4,北北東,10.6,82.1,0,0,0,11.5,0,0,1008.8,1023
231,2021-10-18T03:50:00,2.2,北北東,3.4,北北東,10.6,82.1,0,0,0,11.5,0,0,1008.8,1023
232,2021-10-18T03:51:00,2.2,北北東,3.2,北北東,10.6,82.5,0,0,0,11.5,0,0,1008.8,1023
233,2021-10-18T03:52:00,2.2,北北東,3.3,北,10.5,82.2,0,0,0,11.5,0,0,1008.8,1023
234,2021-10-18T03:53:00,2.2,北北東,3.9,北北東,10.5,82,0,0,0,11.5,0,0,1008.8,1023
235,2021-10-18T03:54:00,2.2,北北東,3.9,北北東,10.6,82.2,0,0,0,11.5,0,0,1008.8,1023
236,2021-10-18T03:55:00,2.1,北北東,3.9,北北東,10.6,82.1,0,0,0,11.5,0,0,1008.9,1023.1
237,2021-10-18T03:56:00,2.1,北北東,3.9,北北東,10.7,81.8,0,0,0,11.5,0,0,1008.8,1023
238,2021-10-18T03:57:00,2.1,北北東,3.9,北北東,10.7,81.6,0,0,0,11.5,0,0,1008.8,1023
239,2021-10-18T03:58:00,2.2,北北東,3.9,北北東,10.9,81.4,0,0,0,11.5,0,0,1008.8,1022.9
240,2021-10-18T03:59:00,2.3,北北東,3.9,北北東,10.9,80.5,0,0,0,11.5,0,0,1008.8,1022.9
241,2021-10-18T04:00:00,2.3,北北東,3.9,北北東,11.1,79.9,0,0,0,11.5,0,0,1008.8,1022.9
242,2021-10-18T04:01:00,2.3,北北東,3.9,北北東,11.2,79.2,0,0,0,11.5,0,0,1008.8,1022.9
243,2021-10-18T04:02:00,2.2,北北東,3.9,北北東,11,78,0,0,0,11.5,0,0,1008.8,1022.9
244,2021-10-18T04:03:00,2.1,北北東,3.4,北北東,10.8,77.6,0,0,0,11.5,0,0,1008.8,1022.9
245,2021-10-18T04:04:00,2,北北東,3.4,北北東,10.7,78,0,0,0,11.5,0,0,1008.8,1023
246,2021-10-18T04:05:00,2,北北東,3.4,北北東,10.6,78.6,0,0,0,11.5,0,0,1008.8,1023
247,2021-10-18T04:06:00,2.1,北北東,3.4,北北東,10.8,79.6,0,0,0,11.5,0,0,1008.8,1022.9
248,2021-10-18T04:07:00,2,北北東,3.4,北北東,11,81,0,0,0,11.5,0,0,1008.8,1022.9
249,2021-10-18T04:08:00,1.9,北北東,3.4,北北東,10.8,80.8,0,0,0,11.5,0,0,1008.8,1022.9
250,2021-10-18T04:09:00,1.9,北北東,2.9,北,10.7,80.2,0,0,0,11.5,0,0,1008.8,1023
